Погода в Симе

Россия / Владимирская область     56°41′08″N   39°33′13″E
темп.,
°C
ветер,
м/с
пор.,
м/с
влажн.,
%
обл.,
%
осадки,
мм/ч
давл.,
гПа
погр.,
м
19 мая, ср
ср1900:00+18вюв515775 0.0 1009353
03:00+17вюв514740 0.0 1009305
06:00+17вюв515736 0.0 1009411
09:00+21юв6146388 0.0 1009707
12:00+25юв612505 0.0 10081206
15:00+26ююв614515 0.0 10082274
18:00+23ююв511604 0.0 1008945
21:00+17ю25895 0.0 100991
20 мая, чт
чт2000:00+16в249427 0.3 100965
03:00+15в3998100 0.3 1008203
06:00+17в3496100 2.7 1007199
09:00+20юв597486 2.7 1007956
12:00+19ююв6107692 1.1 10071362
15:00+20ююв6105597 1.6 10061839
18:00+19ю586410 0.1 10061222
21:00+14ююв398844 0.2 1006298
21 мая, пт
пт2100:00+12ююв289791 0.0 1005246
03:00+10ю259893 0.0 1005122
06:00+12ю378996 0.0 1005280
09:00+14юз358192 0.3 1006798
12:00+14зюз568566 1.3 1008850
15:00+16зсз596554 1.8 10101319
18:00+16з496397 0.1 10121513
21:00+11юз4107876 0.1 1014232
22 мая, сб
сб2200:00+9зюз377596 0.0 1016126
03:00+8зюз36805 0.0 1017103
06:00+10з24771 0.0 1019133
09:00+15зюз12540 0.0 1019721
12:00+18ююз34444 0.0 10191929
15:00+19юз46415 0.0 10182075
18:00+18зюз355450 0.0 1017667
21:00+12ю247897 0.0 101747
23 мая, вс
вс2300:00+10ююз22934 0.0 101731
03:00+9ююв22945 0.0 101821
06:00+12в138490 0.0 1017111
09:00+16вюв4765100 0.0 1015748
12:00+19вюв5759100 0.0 10131027
15:00+17вюв51090100 1.3 1009667
18:00+16вюв51297100 2.3 1007703
21:00+16юв4109899 5.9 1003409